Погода в Рибейран-Прету

Бразилия     21°10′37″S   47°48′28″W
темп.,
°C
ветер,
м/с
пор.,
м/с
влажн.,
%
обл.,
%
осадки,
мм/ч
давл.,
гПа
погр.,
м
27 февраля, сб
сб2700:00+19в13930 0.6 101477
03:00+18вюв13930 0.6 101387
06:00+17в12940 0.0 101372
09:00+21в248617 0.1 1015364
12:00+25св247848 2.4 1014876
15:00+25всв238127 7.6 1011753
18:00+23в368834 5.1 1011294
21:00+20всв289365 8.6 1013269
28 февраля, вс
вс2800:00+19всв249094 1.1 1013184
03:00+18вюв249377 1.1 1012145
06:00+19вюв239289 0.0 1013137
09:00+20в269194 0.0 1014318
12:00+28св365643 0.0 10131667
15:00+27св456722 0.8 10101285
18:00+23в25830 1.2 1010246
21:00+20в238512 1.4 101273
1 марта, пн
пн100:00+19в238958 0.3 101376
03:00+19в249379 0.6 1012122
06:00+18в1394100 0.1 1013108
09:00+23всв378199 0.2 1014570
12:00+27ссв356283 0.6 10131352
15:00+28ссв245667 1.0 10101547
18:00+25всв247410 0.0 1010326
21:00+21в238418 0.1 101294
2 марта, вт
вт200:00+22в2479100 0.0 1013145
03:00+21в1383100 0.0 1012116
06:00+20в128894 0.0 101495
09:00+22всв268196 0.0 1016415
12:00+28ссв355899 0.0 10141213
15:00+28ссв235979 0.5 10121516
18:00+24вюв128399 1.7 1011205
21:00+21в138889 1.8 1014101
3 марта, ср
ср300:00+19в128898 0.0 101573
03:00+18всв128999 0.0 101558
06:00+18в1290100 0.0 101657
09:00+23всв2577100 0.0 1018375
12:00+28с3556100 0.0 10161482
15:00+29ссз235487 0.2 10131710
18:00+24з128599 1.8 1013127
21:00+21ююв1188100 5.0 101556